星链-31880 (STARLINK-31880 )

导读 | 豆包AI

STARLINK-31880是美国SpaceX星链互联网卫星星座中的一员,于2024年5月6日发射入轨,承担卫星互联网服务功能。星链系统依托低轨卫星组网,可向全球提供高速互联网接入服务,覆盖偏远地区,补充地面网络覆盖不足,STARLINK-31880入轨进一步扩充了星链星座的服务能力与覆盖范围。

基本信息
目录编号:
59661
目录名称:
STARLINK-31880
国际标识:
2024-084H
轨道中心:
EARTH
卫星名称:
星链-31880
卫星全名:
星链-31880 (STARLINK-31880 )
卫星状态:
在轨 (已飞行725 天)
发射日期:
2024-05-06 UTC
国别 :
美国 (US)
星等 :
--
轨道信息
数据来源 国际轨道数据
星历时间: 2026-04-30T17:39:36+0800
16小时前
查看轨道信息
半长轴: 6861.258km
偏心率: 0.0000292
轨道倾角: 43.002°
近地点辐角 241.319°
升交点赤经 106.153°
平近点角 118.763°
近地点: 482.92km
远地点: 483.322km
周期: 94.268分钟
每日圈数: 15.275563
详细信息
固有亮度:
5
最大亮度:
1.5
卫星平台:
Starlink v2.0 mini
覆盖范围:
全球
运营商:
太空探索技术公司
运营商所在国:
美国
制造商(研发单位):
太空探索技术公司
制造商所在国:
美国
使用方式:
暂无
卫星简介
星链(Starlink)计划是由太空探索技术公司(SpaceX)提出的一个巨型低轨卫星互联网星座项目,计划在2019年至2024年间在太空搭建由约1.2万颗卫星组成的“星链”网络,其中1584颗将部署在地球上空550千米处的近地轨道,并从2020年开始工作。该卫星仍在工作。
2D轨道图
3D轨道图
轨道高度分析图
轨道倾角分析图
轨道综合分析图
查看轨道综合分析图